Grey Islet, British Columbia

1:26 PM PST on November 23, 2017 (GMT -0800)
Grey Islet

Weather History for CWEK - February, 2013

Change the Weather History Date:

Saturday, February 2, 2013

  Actual Average Record
Temperature  
Mean Temperature 44 °F -  
Max Temperature 46 °F - - ()
Min Temperature 43 °F - - ()
Degree Days  
Heating Degree Days 20    
Moisture  
Dew Point 42 °F    
Average Humidity 90    
Maximum Humidity 97    
Minimum Humidity 80    
Precipitation  
Precipitation 0.24 in - - ()
Sea Level Pressure  
Sea Level Pressure 30.10 in    
Wind  
Wind Speed 20 mph ()    
Max Wind Speed 29 mph    
Max Gust Speed 31 mph    
T = Trace of Precipitation, MM = Missing Value Source: Averaged Metar Reports

Daily Weather History Graph

Daily Weather History Graph

Search for Another Location

Airport or City:

Trip Planner

Search our weather history database for the weather conditions in past years. The results will help you decide how hot, cold, wet, or windy it might be!

Date:

Astronomy

Feb. 02, 2013 Rise Set
Actual Time 8:29 AM PST 5:24 PM PST
Civil Twilight 7:50 AM PST 6:03 PM PST
Nautical Twilight 7:07 AM PST 6:46 PM PST
Astronomical Twilight 6:25 AM PST 7:28 PM PST
Moon 12:49 AM PST (2/2) 10:29 AM PST (2/2)
Length of Visible Light 10h 13m
Length of Day
8h 55m
Waning Gibbous, 58% of the Moon is Illuminated
Feb 2
Waning Gibbous
Feb 3
Last Quarter
Feb 9
New
Feb 17
First Quarter
Feb 25
Full

Hourly Weather History & Observations

Time (PST) Temp. Windchill Dew Point Humidity Pressure Visibility Wind Dir Wind Speed Gust Speed Precip Events Conditions
12:00 AM 46.6 °F - 41.2 °F 81% 30.21 in - SSE 21.9 mph - N/A   Unknown
1:00 AM 46.6 °F - 41.2 °F 81% 30.20 in - SSE 23.0 mph - N/A   Unknown
2:00 AM 46.6 °F - 41.4 °F 82% 30.20 in - SSE 21.9 mph - N/A   Unknown
3:00 AM 46.4 °F 38.5 °F 41.5 °F 83% 30.19 in - SSE 21.9 mph - N/A   Unknown
4:00 AM 46 °F - 42 °F 80% 30.17 in - SSE 26.5 mph - -  
4:00 AM 45.9 °F 37.0 °F 41.9 °F 86% 30.17 in - SSE 26.5 mph - N/A   Unknown
5:00 AM 45.1 °F 36.6 °F 42.4 °F 90% 30.16 in - SSE 23.0 mph - 0.01 in   Unknown
6:00 AM 45.0 °F 36.6 °F 42.6 °F 91% 30.15 in - South 21.9 mph - 0.05 in   Unknown
7:00 AM 44.8 °F 36.2 °F 42.8 °F 93% 30.13 in - SSE 23.0 mph - 0.04 in   Unknown
8:00 AM 44.8 °F 35.2 °F 42.8 °F 93% 30.12 in - South 28.8 mph - 0.04 in   Unknown
9:00 AM 44.6 °F 35.5 °F 42.8 °F 93% 30.13 in - SSE 25.3 mph - 0.02 in   Unknown
10:00 AM 44 °F - 42 °F 92% 30.12 in - SSE 21.9 mph - -  
10:00 AM 44.1 °F 35.4 °F 42.4 °F 94% 30.12 in - SSE 21.9 mph - 0.05 in   Unknown
11:00 AM 44.6 °F 34.9 °F 41.7 °F 90% 30.09 in - SE 28.8 mph - 0.02 in   Unknown
12:00 PM 44.6 °F 35.7 °F 41.0 °F 87% 30.08 in - SE 24.2 mph - N/A   Unknown
1:00 PM 44.8 °F 35.7 °F 40.8 °F 86% 30.07 in - SSE 25.3 mph - 0.01 in   Unknown
2:00 PM 44.4 °F 35.3 °F 40.6 °F 87% 30.05 in - SSE 25.3 mph 31.1 mph 0.01 in   Unknown
3:00 PM 44.1 °F 35.2 °F 41.2 °F 90% 30.05 in - SSE 23.0 mph - 0.04 in   Unknown
4:00 PM 44 °F - 41 °F 86% 30.04 in - SSE 25.3 mph - -  
4:00 PM 44.1 °F 34.8 °F 41.2 °F 90% 30.04 in - SSE 25.3 mph - 0.05 in   Unknown
5:00 PM 43.3 °F 33.8 °F 41.9 °F 95% 30.04 in - SSE 25.3 mph - 0.09 in   Unknown
6:00 PM 43.2 °F 33.6 °F 42.1 °F 96% 30.04 in - SSE 25.3 mph - 0.03 in   Unknown
7:00 PM 43.3 °F 34.0 °F 42.4 °F 97% 30.04 in - SSE 24.2 mph - 0.05 in   Unknown
8:00 PM 43.3 °F 34.5 °F 42.4 °F 97% 30.04 in - SSE 21.9 mph - 0.01 in   Unknown
9:00 PM 43.3 °F 35.0 °F 42.6 °F 97% 30.04 in - SSE 19.6 mph - 0.01 in   Unknown
10:00 PM 43 °F - 42 °F 97% 30.06 in - SSW 11.5 mph - -  
10:00 PM 43.2 °F 37.0 °F 42.4 °F 97% 30.06 in - SSW 11.5 mph - 0.06 in   Unknown
11:00 PM 43.3 °F 39.9 °F 42.4 °F 97% 30.05 in - SSE 5.8 mph - N/A   Unknown